Location: De Greiden
(52.9496°N, 5.9137°E)
Time: 23:53:04
(UTC+00:00)

CZ-4C R/B - Pass Details

Date: 24 January 2021
Orbit: 617 x 1385 km, 63.4° (Epoch: 01 March)

Event Time Altitude Azimuth Distance (km) Brightness Sun altitude
Rises 19:23:23 0° 295° (WNW) 3,442 6.4 -29.3°
Reaches altitude 10° 19:25:56 10° 305° (NW) 2,617 5.5 -29.6°
Maximum altitude 19:31:35 35° 10° (N) 1,630 3.6 -30.5°
Enters shadow 19:31:44 35° 13° (NNE) 1,635 3.6 -30.5°
